Location: Unspecified
(49.8670°N, 0.0000°E)
Time: 18:00:36
(UTC+00:00)

S-56A Canister/Altair - Pass Details

Date: 20 June 2019
Orbit: 632 x 2500 km, 38.9° (Epoch: 14 July)

Event Time Altitude Azimuth Distance (km) Brightness Sun altitude
Rises 20:50:37 0° 262° (W) 3,508 11.5 -5.4°
Reaches altitude 10° 20:54:27 10° 240° (WSW) 2,302 10.2 -5.8°
Maximum altitude 20:57:17 15° 206° (SSW) 1,841 9.3 -6.1°
Drops below altitude 10° 20:59:53 10° 171° (S) 2,054 9.2 -6.4°
Enters shadow 21:01:04 - 159° (SSE) 2,329 9.4 -6.5°
Sets 21:02:59 0° 146° (SSE) 2,909 - -6.7°
